U of Miami Health System FL US WEATHERSTEM current weather conditions

sailwx.info

Wind from 086 at 9 knots gusting 13

Air temperature 27.3° C
Dewpoint 24.0° C

Last reported at 2020-May-30 03:00 UTC.
Time now 2020-May-30 03:39 UTC

Location: N 25°47' W 080°13'.
View on Google Maps.

See reports from other nearby stations

  
Tides and Currents Weather Stations Pressure Air Temp Water Temp Dewpoint Dewpoint Depression Visibility Wind Speed Wind Dir Waves Ship Positions
date/time (UTC)wind fromknots sea level pressurealtimeterstation pressurevisibilityair tempwater tempwave heightnotes
2020-May-30 03:00 086 9 gusting 13 27.3
2020-May-30 02:50 090 9 gusting 12 27.3
2020-May-30 02:40 092 8 gusting 11 27.4
2020-May-30 02:30 109 6 gusting 12 27.4
2020-May-30 02:10 092 6 gusting 12 27.4
2020-May-30 02:00 095 6 gusting 18 27.4
2020-May-30 01:50 092 12 gusting 12 27.4
2020-May-30 01:40 096 6 gusting 16 27.4
2020-May-30 01:30 098 6 gusting 13 27.4
2020-May-30 01:10 131 9 gusting 16 27.4
2020-May-30 01:00 097 9 gusting 16 27.4
2020-May-30 00:50 101 11 gusting 14 27.4
2020-May-30 00:40 129 11 gusting 17 27.4
2020-May-30 00:30 098 13 gusting 18 27.4
2020-May-30 00:10 102 9 gusting 17 27.6
2020-May-29 23:50 098 7 gusting 15 27.6
2020-May-29 23:40 114 7 gusting 12 27.7
2020-May-29 23:30 27.7
2020-May-29 23:10 067 5 gusting 14 27.7
2020-May-29 23:00 065 10 gusting 17 27.8
2020-May-29 22:50 107 13 gusting 13 27.7
2020-May-29 22:30 27.9
2020-May-29 22:10 098 10 gusting 16 27.8
2020-May-29 22:00 125 7 gusting 15 28.0
2020-May-29 21:50 115 10 gusting 14 28.1
2020-May-29 21:40 063 7 gusting 15 28.1
2020-May-29 21:30 132 6 gusting 13 28.3
2020-May-29 21:10 115 12 gusting 16 27.9
2020-May-29 21:00 103 14 gusting 18 27.8
2020-May-29 20:50 093 13 gusting 17 28.3
2020-May-29 20:40 109 13 gusting 19 28.0
2020-May-29 20:30 119 11 gusting 18 28.1
2020-May-29 20:10 075 8 gusting 18 28.4
2020-May-29 20:00 080 6 gusting 16 28.5
2020-May-29 19:50 082 13 gusting 17 28.5
2020-May-29 19:40 119 12 gusting 16 28.6
2020-May-29 19:30 097 7 gusting 14 29.4
2020-May-29 19:10 117 13 gusting 17 28.7
2020-May-29 19:00 121 13 gusting 17 28.7
2020-May-29 18:50 135 13 gusting 16 29.0
2020-May-29 18:40 121 15 gusting 18 28.7
2020-May-29 18:30 104 12 gusting 17 28.6
2020-May-29 18:10 136 14 gusting 17 28.6
2020-May-29 18:00 095 9 gusting 15 28.8
2020-May-29 17:50 125 12 gusting 18 28.4
2020-May-29 17:30 140 15 gusting 17 28.6
2020-May-29 17:10 113 13 gusting 19 28.7
2020-May-29 17:00 117 12 gusting 18 28.4
2020-May-29 16:50 129 9 gusting 17 28.2
2020-May-29 16:40 137 10 gusting 19 28.2
2020-May-29 16:30 117 14 gusting 20 28.2
2020-May-29 09:30 090 6 gusting 6 26.7
2020-May-29 09:20 090 6 gusting 6 26.7
2020-May-29 09:10 090 6 gusting 6 26.7
2020-May-29 08:50 082 6 gusting 12 26.4
2020-May-29 08:40 094 7 gusting 12 26.4
2020-May-29 08:30 087 8 gusting 12 26.4
2020-May-29 08:20 083 4 gusting 10 26.4
2020-May-29 08:10 081 6 gusting 11 26.4
2020-May-29 08:00 085 7 gusting 12 26.4
2020-May-29 07:50 026 0 gusting 13 26.6
2020-May-29 07:40 113 2 gusting 13 26.6
2020-May-29 07:30 110 6 gusting 14 26.5
2020-May-29 07:20 071 10 gusting 13 26.6
2020-May-29 07:10 078 6 gusting 13 26.6
2020-May-29 07:00 092 8 gusting 12 26.6
2020-May-29 06:50 093 8 gusting 11 26.7
2020-May-29 06:40 098 7 gusting 11 26.7
2020-May-29 06:30 101 8 gusting 14 26.8
2020-May-29 06:20 091 9 gusting 14 26.8
2020-May-29 06:10 089 9 gusting 13 26.8
2020-May-29 06:00 087 10 gusting 15 26.8
2020-May-29 05:50 086 13 gusting 14 26.8
2020-May-29 05:40 088 9 gusting 13 26.9
2020-May-29 05:30 095 9 gusting 12 26.9
2020-May-29 05:20 089 12 gusting 13 26.9
2020-May-29 05:10 087 13 gusting 15 27.0
2020-May-29 05:00 105 6 gusting 11 27.0
2020-May-29 04:50 086 8 gusting 12 27.0
2020-May-29 04:40 082 9 gusting 12 27.0
2020-May-29 02:50 089 11 gusting 13 27.2
2020-May-29 02:30 091 6 gusting 13 27.2
2020-May-29 02:20 083 8 gusting 13 27.2
2020-May-29 02:10 086 3 gusting 13 27.2
2020-May-29 02:00 090 6 gusting 10 27.2
2020-May-29 01:50 094 9 gusting 15 27.3
2020-May-29 01:30 102 11 gusting 13 27.3
2020-May-29 01:20 071 4 gusting 10 27.3
2020-May-29 01:10 101 11 gusting 16 27.3
2020-May-29 01:00 101 7 gusting 14 27.4
2020-May-29 00:30 107 6 gusting 13 27.4
2020-May-29 00:20 103 6 gusting 13 27.5
2020-May-29 00:10 094 8 gusting 13 27.5
2020-May-29 00:00 084 8 gusting 14 27.4
2020-May-28 23:50 083 11 gusting 18 27.4
2020-May-28 23:30 097 12 gusting 16 27.5
2020-May-28 23:20 090 10 gusting 13 27.7
2020-May-28 23:10 086 8 gusting 18 27.6
2020-May-28 23:00 094 8 gusting 16 27.7
2020-May-28 22:50 100 6 gusting 14 27.9
2020-May-28 22:30 102 11 gusting 13 27.7
2020-May-28 22:20 111 9 gusting 18 27.7
2020-May-28 22:10 096 10 gusting 18 27.7
2020-May-28 22:00 074 10 gusting 13 27.9
2020-May-28 21:50 064 7 gusting 15 27.9
2020-May-28 21:30 136 13 gusting 19 27.8
2020-May-28 21:20 132 12 gusting 15 27.8
2020-May-28 21:10 127 9 gusting 17 27.9
2020-May-28 21:00 136 10 gusting 17 27.9
2020-May-28 20:50 128 10 gusting 18 27.9
2020-May-28 20:30 108 12 gusting 18 28.1
2020-May-28 20:20 133 16 gusting 21 28.5
2020-May-28 20:10 130 14 gusting 20 28.7
2020-May-28 20:00 061 10 gusting 17 28.9
2020-May-28 19:50 103 8 gusting 15 28.8
2020-May-28 19:30 094 6 gusting 15 28.8
2020-May-28 19:20 096 15 gusting 18 28.6
2020-May-28 19:10 094 6 gusting 17 28.6
2020-May-28 19:00 127 9 gusting 16 28.9
2020-May-28 18:50 152 7 gusting 13 29.1
2020-May-28 18:30 123 8 gusting 13 28.9
2020-May-28 18:20 098 12 gusting 15 28.9
2020-May-28 18:10 084 6 gusting 18 28.9
2020-May-28 18:00 127 13 gusting 17 28.8
2020-May-28 17:50 098 12 gusting 14 28.9
2020-May-28 17:30 139 8 gusting 14 28.7
2020-May-28 17:20 105 13 gusting 15 28.4
2020-May-28 17:10 101 10 gusting 13 28.7
2020-May-28 17:00 126 8 gusting 16 28.6
2020-May-28 16:50 119 11 gusting 13 28.9
2020-May-28 16:30 100 10 gusting 13 28.8
2020-May-28 16:20 142 7 gusting 14 28.7
2020-May-28 16:10 137 9 gusting 13 28.7
2020-May-28 16:00 087 7 gusting 13 29.1
2020-May-28 15:50 098 13 gusting 15 28.7
2020-May-28 15:30 091 9 gusting 13 28.7
2020-May-28 15:20 109 10 gusting 13 28.8
2020-May-28 15:10 126 12 gusting 15 28.6
2020-May-28 15:00 099 11 gusting 15 28.4
2020-May-28 14:50 049 7 gusting 15 28.2
2020-May-28 14:30 126 8 gusting 14 28.4
2020-May-28 14:20 070 4 gusting 16 28.6
2020-May-28 14:10 097 12 gusting 15 28.4
2020-May-28 14:00 105 6 gusting 14 28.2
2020-May-28 13:50 094 12 gusting 14 28.7
2020-May-28 13:30 140 8 gusting 14 28.2
2020-May-28 13:20 121 7 gusting 13 28.0
2020-May-28 13:10 119 10 gusting 11 28.1
2020-May-28 12:50 121 3 gusting 8 27.6
2020-May-28 12:30 145 5 gusting 12 27.4
2020-May-28 12:20 143 5 gusting 8 27.1
2020-May-28 12:10 161 6 gusting 7 26.7
2020-May-28 12:00 178 2 gusting 8 26.4
2020-May-28 11:50 165 11 gusting 11 27.2
2020-May-28 11:30 109 9 gusting 13 27.2
2020-May-28 11:20 128 10 gusting 13 27.0
2020-May-28 11:10 121 4 gusting 7 26.9
2020-May-28 11:00 102 6 gusting 6 26.8
2020-May-28 10:50 145 3 gusting 6 26.8
2020-May-28 10:30 140 3 gusting 7 26.9
2020-May-28 10:20 116 6 gusting 8 26.9
2020-May-28 10:10 125 6 gusting 8 26.9
2020-May-28 10:00 104 3 gusting 7 26.8
2020-May-28 09:50 154 2 gusting 7 26.9
2020-May-28 09:30 135 6 gusting 7 26.9
2020-May-28 09:10 152 6 gusting 7 27.0
2020-May-28 09:00 150 4 gusting 6 27.0
2020-May-28 08:50 135 2 gusting 6 27.0
2020-May-28 08:30 130 3 gusting 6 26.9
2020-May-28 08:20 130 2 gusting 6 26.9
2020-May-28 08:10 126 6 gusting 7 26.9
2020-May-28 08:00 119 2 gusting 7 26.8
2020-May-28 07:50 146 6 gusting 7 26.9
2020-May-28 07:30 143 4 gusting 8 26.9
2020-May-28 07:20 156 5 gusting 9 26.9
2020-May-28 06:50 130 5 gusting 5 27.2
2020-May-28 06:40 130 5 gusting 5 27.2
2020-May-28 06:30 130 5 gusting 5 27.2
2020-May-28 06:20 130 5 gusting 5 27.2
2020-May-28 06:10 130 5 gusting 5 27.2
2020-May-28 05:50 121 9 gusting 13 27.1
2020-May-28 05:30 092 5 gusting 14 27.1
2020-May-28 05:20 131 7 gusting 12 27.2
2020-May-28 05:10 128 9 gusting 13 27.3
2020-May-28 05:00 100 7 gusting 10 27.2
2020-May-28 04:50 143 3 gusting 7 27.2
2020-May-28 04:30 148 5 gusting 7 27.2
2020-May-28 04:20 153 6 gusting 8 27.3
2020-May-28 04:10 138 3 gusting 6 27.3
2020-May-28 04:00 138 4 gusting 7 27.3